DW3766 Weather Reports


Display with metric or nautical units.
time (UTC)temp
F
wind
direction
speed
MPH
gust
MPH
rain 1hr
in
rain 24hr
in
rain mn
in
humidity
%
barometer
mb
20260502170128 65 5 8.0 14.0 0.00 0.71 0.00 52 1023.0
20260502164146 65 65 8.0 13.0 0.00 0.71 0.00 52 1023.2
20260502163711 65 42 6.0 12.0 0.00 0.71 0.00 53 1023.2
20260502163155 65 61 6.0 10.0 0.00 0.71 0.00 51 1023.3
20260502162727 65 338 3.0 15.0 0.00 0.71 0.00 53 1023.3
20260502162131 65 65 7.0 15.0 0.00 0.71 0.00 51 1023.4
20260502161707 65 60 8.0 11.0 0.00 0.71 0.00 52 1023.3
20260502161130 65 344 6.0 10.0 0.00 0.71 0.00 52 1023.2
20260502160704 64 22 5.0 11.0 0.00 0.71 0.00 53 1023.2
20260502160129 64 13 5.0 11.0 0.00 0.73 0.00 51 1023.3
20260502152116 62 351 5.0 12.0 0.00 0.73 0.00 57 1023.0
20260502151649 62 29 6.0 12.0 0.00 0.73 0.00 58 1023.0
20260502151114 61 22 7.0 11.0 0.00 0.73 0.00 57 1022.9
20260502150648 61 59 7.0 12.0 0.00 0.73 0.00 58 1022.9
20260502150114 61 69 4.0 9.0 0.00 0.74 0.00 59 1022.9
20260502130648 50 306 4.0 5.0 0.00 0.82 0.00 90 1022.1
20260502130122 50 307 2.0 4.0 0.00 0.91 0.00 90 1021.9
20260502123628 48 319 0.0 0.0 0.00 0.91 0.00 89 1021.5
20260502123154 48 320 0.0 0.0 0.00 0.91 0.00 88 1021.3
20260502122704 48 319 0.0 0.0 0.00 0.91 0.00 88 1021.3
20260502122129 48 320 0.0 0.0 0.00 0.91 0.00 88 1021.3
20260502121702 48 320 0.0 1.0 0.00 0.91 0.00 87 1021.2
20260502121125 48 319 0.0 4.0 0.00 0.91 0.00 87 1021.2
20260502120659 48 307 1.0 4.0 0.00 0.91 0.00 87 1021.0
20260502120128 48 319 1.0 4.0 0.00 0.99 0.00 87 1020.9
20260502115654 48 336 1.0 4.0 0.00 0.99 0.00 87 1020.9
20260502115207 48 319 1.0 2.0 0.00 0.99 0.00 87 1020.9
20260502114633 48 318 0.0 2.0 0.00 0.99 0.00 87 1020.9
20260502114147 48 318 1.0 2.0 0.00 0.99 0.00 86 1020.7
20260502113650 48 318 1.0 2.0 0.00 0.99 0.00 86 1020.8
20260502113225 48 318 1.0 2.0 0.00 0.99 0.00 86 1020.7
20260502112629 48 318 0.0 0.0 0.00 0.99 0.00 86 1020.7
20260502112154 49 318 0.0 0.0 0.00 0.99 0.00 85 1020.6
20260502111628 49 318 0.0 0.0 0.00 0.99 0.00 85 1020.6
20260502111154 49 318 0.0 0.0 0.00 0.99 0.00 85 1020.6
20260502110630 49 318 0.0 0.0 0.00 0.99 0.00 85 1020.6
20260502110156 49 318 0.0 0.0 0.00 1.47 0.00 85 1020.5
20260502105629 49 318 0.0 1.0 0.00 1.47 0.00 85 1020.5
20260502105154 49 318 0.0 2.0 0.00 1.47 0.00 85 1020.5
20260502104621 49 318 1.0 2.0 0.00 1.47 0.00 84 1020.4
20260502104155 50 326 0.0 0.0 0.00 1.47 0.00 84 1020.3
20260502103620 50 326 0.0 0.0 0.00 1.47 0.00 84 1020.2
20260502103153 50 331 0.0 0.0 0.00 1.47 0.00 84 1020.1
20260502102615 50 331 0.0 0.0 0.00 1.47 0.00 84 1020.1
20260502102150 50 331 0.0 0.0 0.00 1.47 0.00 84 1020.1
20260502101654 50 331 0.0 0.0 0.00 1.47 0.00 84 1020.0
20260502101127 50 331 0.0 0.0 0.00 1.47 0.00 83 1019.9
20260502100654 50 331 0.0 0.0 0.00 1.47 0.00 83 1019.8
20260502100119 50 331 0.0 0.0 0.00 1.69 0.00 83 1019.7
20260502091159 51 11 0.0 0.0 0.00 1.69 0.00 83 1018.9
20260502090624 51 360 0.0 0.0 0.00 1.69 0.00 83 1018.8
20260502090158 51 355 0.0 0.0 0.00 1.87 0.00 83 1018.6
20260502071136 51 332 3.0 7.0 0.00 2.04 0.00 85 1018.3
20260502070710 51 17 2.0 5.0 0.00 2.04 0.00 85 1018.4
20260502070136 52 40 0.0 4.0 0.00 2.04 0.00 85 1018.4
20260502065614 52 317 1.0 4.0 0.00 2.04 0.00 85 1018.4
20260502065120 52 319 0.0 4.0 0.00 2.04 0.00 85 1018.5
20260502064625 52 340 1.0 3.0 0.00 2.04 0.00 85 1018.5
20260502064124 52 340 1.0 4.0 0.00 2.04 0.00 85 1018.5
20260502063629 52 331 1.0 4.0 0.00 2.04 0.00 85 1018.4
20260502063128 52 5 0.0 5.0 0.00 2.04 0.00 85 1018.3
20260502062633 52 346 3.0 5.0 0.00 2.04 0.00 84 1018.5
20260502062129 52 319 2.0 5.0 0.00 2.04 0.00 84 1018.3
20260502061615 52 321 3.0 5.0 0.00 2.04 0.00 84 1018.4
20260502061138 52 20 1.0 5.0 0.00 2.04 0.00 84 1018.4
20260502060635 52 340 0.0 0.0 0.00 2.04 0.00 84 1018.4
20260502060119 52 13 0.0 0.0 0.00 2.04 0.00 84 1018.4
20260502055617 53 13 0.0 0.0 0.00 2.04 0.00 84 1018.3
20260502055122 53 13 0.0 0.0 0.00 2.04 0.00 84 1018.3
20260502054626 53 13 0.0 0.0 0.00 2.04 0.00 84 1018.3
20260502054124 53 346 0.0 0.0 0.00 2.04 0.00 84 1018.4
20260502053630 53 5 0.0 0.0 0.00 2.04 0.00 83 1018.4
20260502053128 53 5 0.0 4.0 0.00 2.04 0.00 83 1018.6
20260502052631 53 5 0.0 5.0 0.00 2.04 0.00 83 1018.6
20260502052136 53 18 0.0 6.0 0.00 2.04 0.00 83 1018.5
20260502051634 53 14 3.0 6.0 0.00 2.04 0.00 83 1018.7
20260502051119 53 343 2.0 5.0 0.00 2.04 0.00 83 1018.7
20260502050617 53 360 1.0 5.0 0.00 2.04 0.00 83 1018.6
20260502050122 53 332 1.0 6.0 0.00 2.04 2.04 82 1018.6
20260502045654 53 355 3.0 6.0 0.00 2.04 2.04 82 1018.6
20260502045128 53 355 1.0 5.0 0.00 2.04 2.04 82 1018.6
20260502044650 53 360 3.0 9.0 0.00 2.04 2.04 82 1018.4
20260502044123 54 333 5.0 9.0 0.00 2.04 2.04 82 1018.4
20260502043650 54 59 2.0 8.0 0.00 2.04 2.04 82 1018.4
20260502043115 54 49 1.0 11.0 0.00 2.04 2.04 82 1018.3
20260502042647 54 360 2.0 6.0 0.00 2.04 2.04 82 1018.2
20260502042131 54 30 3.0 9.0 0.00 2.04 2.04 82 1018.2
20260502041700 54 360 2.0 9.0 0.00 2.04 2.04 82 1018.2
20260502041224 54 329 3.0 9.0 0.00 2.04 2.04 82 1018.1
20260502040635 54 24 2.0 7.0 0.00 2.04 2.04 82 1018.1
20260502040140 54 81 0.0 6.0 0.00 2.04 2.04 82 1018.1
20260502035618 54 23 2.0 8.0 0.00 2.04 2.04 82 1018.1
20260502035123 54 40 3.0 12.0 0.00 2.04 2.04 82 1018.1
20260502034656 54 360 5.0 12.0 0.00 2.04 2.04 82 1018.1
20260502034121 54 56 4.0 8.0 0.00 2.04 2.04 82 1018.1
20260502033632 54 67 4.0 12.0 0.00 2.04 2.04 82 1018.1
20260502033137 54 5 5.0 12.0 0.00 2.04 2.04 82 1018.0
20260502032701 54 355 3.0 13.0 0.00 2.04 2.04 82 1018.0
20260502032114 54 355 6.0 13.0 0.00 2.04 2.04 82 1018.0
20260502031640 54 33 8.0 16.0 0.00 2.04 2.04 83 1018.0
20260502031113 54 5 6.0 16.0 0.00 2.04 2.04 83 1017.9
20260502030636 54 53 6.0 18.0 0.00 2.04 2.04 83 1017.8
20260502030113 54 17 9.0 18.0 0.00 2.04 2.04 83 1017.7
20260502025637 54 355 7.0 13.0 0.00 2.04 2.04 83 1017.6
20260502025211 54 57 6.0 9.0 0.00 2.04 2.04 83 1017.6
20260502024637 54 30 5.0 12.0 0.00 2.04 2.04 83 1017.6
20260502024208 54 15 3.0 12.0 0.00 2.04 2.04 83 1017.5
20260502023634 54 21 5.0 9.0 0.00 2.04 2.04 83 1017.3
20260502023203 54 48 4.0 10.0 0.00 2.04 2.04 83 1017.2
20260502022707 54 71 5.0 11.0 0.00 2.04 2.04 82 1017.1
20260502022132 54 20 5.0 10.0 0.00 2.04 2.04 82 1016.9
20260502021707 54 38 6.0 11.0 0.00 2.04 2.04 82 1016.7
20260502021136 54 55 5.0 10.0 0.00 2.04 2.04 82 1016.6
20260502020649 54 42 6.0 10.0 0.00 2.04 2.04 82 1016.6
20260502020214 54 55 6.0 19.0 0.00 2.04 2.04 82 1016.5
20260502015728 54 29 5.0 19.0 0.00 2.04 2.04 82 1016.5
20260502015131 54 346 4.0 13.0 0.00 2.04 2.04 82 1016.5
20260502014637 54 58 6.0 13.0 0.00 2.04 2.04 82 1016.3
20260502014149 54 56 7.0 13.0 0.00 2.04 2.04 82 1016.3
20260502013614 54 33 5.0 14.0 0.00 2.04 2.04 82 1016.2
20260502013147 54 19 7.0 14.0 0.00 2.04 2.04 82 1016.3
20260502012712 54 71 6.0 13.0 0.00 2.04 2.04 82 1016.1
20260502012222 55 5 6.0 15.0 0.00 2.04 2.04 82 1016.1
20260502011626 55 32 6.0 20.0 0.00 2.04 2.04 83 1016.1
20260502011200 55 58 10.0 20.0 0.00 2.04 2.04 83 1016.1
20260502010628 55 46 6.0 13.0 0.00 2.04 2.04 84 1016.0
20260502010139 55 51 5.0 15.0 0.00 2.04 2.04 84 1015.9
20260502005705 55 76 9.0 18.0 0.00 2.04 2.04 84 1015.8
20260502005138 55 15 11.0 18.0 0.00 2.04 2.04 84 1015.5
20260502004642 56 349 10.0 21.0 0.00 2.04 2.04 85 1015.4
20260502004147 56 336 8.0 21.0 0.00 2.04 2.04 85 1015.4
20260502003700 56 360 9.0 16.0 0.00 2.04 2.04 86 1015.2
20260502003127 56 9 5.0 16.0 0.00 2.04 2.04 86 1015.0
20260502002656 56 48 7.0 18.0 0.00 2.04 2.04 86 1014.9
20260502002121 56 19 10.0 18.0 0.00 2.04 2.04 86 1014.8
20260502001654 57 11 9.0 16.0 0.00 2.04 2.04 86 1014.6
20260502001218 57 355 7.0 18.0 0.00 2.04 2.04 86 1014.5
20260502000635 57 11 8.0 15.0 0.00 2.04 2.04 86 1014.4
20260502000203 57 10 8.0 19.0 0.00 2.04 2.04 87 1014.3
20260501235627 57 58 10.0 21.0 0.00 2.04 2.04 87 1014.1
20260501235200 57 5 11.0 21.0 0.00 2.04 2.04 87 1014.2
20260501234705 57 344 8.0 20.0 0.00 2.04 2.04 87 1014.1
20260501234138 57 34 10.0 24.0 0.00 2.04 2.04 88 1014.1
20260501233643 57 27 11.0 24.0 0.00 2.04 2.04 88 1014.0
20260501233116 57 40 11.0 23.0 0.00 2.04 2.04 89 1013.8
20260501232641 57 48 9.0 23.0 0.00 2.04 2.04 89 1013.7
20260501232114 57 5 8.0 15.0 0.00 2.04 2.04 89 1013.4
20260501231617 57 15 8.0 18.0 0.00 2.04 2.04 90 1013.2
20260501231121 58 303 5.0 18.0 0.00 2.04 2.04 90 1013.1
20260501230654 58 34 11.0 19.0 0.00 2.04 2.04 90 1013.0
20260501230122 58 61 10.0 19.0 0.00 2.04 2.04 91 1013.1
20260501225636 58 11 8.0 13.0 0.00 2.04 2.04 91 1013.0
20260501225201 58 344 8.0 18.0 0.00 2.04 2.04 91 1013.0
20260501224713 58 22 10.0 18.0 0.00 2.04 2.04 91 1012.9
20260501224116 58 355 9.0 18.0 0.00 2.04 2.04 92 1013.0
20260501223141 58 31 8.0 15.0 0.00 2.04 2.04 92 1013.2
20260501222706 58 341 7.0 13.0 0.01 2.04 2.04 92 1013.1
20260501222118 58 355 8.0 20.0 0.03 2.04 2.04 92 1013.0
20260501221644 58 345 10.0 20.0 0.06 2.04 2.04 92 1013.0
20260501221118 58 5 9.0 20.0 0.08 2.04 2.04 93 1013.1
20260501220644 58 61 7.0 21.0 0.09 2.04 2.04 93 1013.0
20260501220115 58 355 8.0 16.0 0.09 2.04 2.04 93 1013.0
20260501215637 59 340 7.0 14.0 0.10 2.04 2.04 93 1013.0
20260501215211 59 323 11.0 14.0 0.10 2.04 2.04 93 1012.9
20260501214634 59 351 8.0 14.0 0.10 2.04 2.04 94 1012.5
20260501214202 58 346 8.0 16.0 0.11 2.04 2.04 93 1012.4
20260501213626 59 321 10.0 16.0 0.12 2.04 2.04 93 1012.6
20260501213151 59 22 7.0 13.0 0.15 2.04 2.04 94 1012.3
20260501212627 58 20 7.0 13.0 0.20 2.03 2.03 93 1012.5
20260501212131 58 343 5.0 13.0 0.20 2.01 2.01 93 1012.5
20260501211705 58 337 4.0 14.0 0.18 1.98 1.98 93 1012.6
20260501211230 58 355 8.0 15.0 0.17 1.96 1.96 93 1012.9
20260501210641 58 355 9.0 15.0 0.17 1.95 1.95 93 1012.8
20260501210146 58 319 7.0 13.0 0.17 1.95 1.95 93 1012.5
20260501205618 58 306 7.0 14.0 0.16 1.94 1.94 93 1012.7
20260501205144 58 332 9.0 15.0 0.16 1.94 1.94 93 1012.7
20260501204656 58 36 11.0 16.0 0.16 1.94 1.94 93 1012.2
20260501204120 58 350 11.0 16.0 0.15 1.93 1.93 93 1012.4
20260501203646 58 17 8.0 13.0 0.14 1.92 1.92 93 1012.7
20260501203118 58 340 6.0 14.0 0.10 1.88 1.88 92 1012.7
20260501202147 59 351 7.0 14.0 0.03 1.81 1.81 93 1012.9
20260501201722 59 355 7.0 13.0 0.02 1.80 1.80 93 1012.8
20260501201123 59 5 9.0 19.0 0.00 1.78 1.78 93 1012.3
20260501200649 60 12 8.0 15.0 0.00 1.78 1.78 94 1012.1
20260501200201 60 355 9.0 15.0 0.00 1.78 1.78 94 1011.8
20260501195728 60 19 6.0 13.0 0.00 1.78 1.78 94 1011.4
20260501195140 60 360 6.0 12.0 0.01 1.78 1.78 94 1011.3
20260501194645 60 351 6.0 13.0 0.04 1.78 1.78 95 1011.3
20260501194115 60 360 6.0 16.0 0.10 1.78 1.78 95 1011.3
20260501193640 60 22 10.0 16.0 0.15 1.78 1.78 94 1011.3
20260501193146 60 10 7.0 12.0 0.15 1.78 1.78 95 1011.2
20260501192616 60 30 8.0 14.0 0.15 1.78 1.78 95 1011.1
20260501192142 60 5 6.0 18.0 0.15 1.78 1.78 95 1011.0
20260501191616 60 46 9.0 19.0 0.15 1.78 1.78 95 1010.5
20260501190639 60 355 10.0 16.0 0.15 1.78 1.78 95 1010.5
20260501190146 60 45 8.0 13.0 0.15 1.78 1.78 95 1011.3
20260501185710 60 335 7.0 12.0 0.15 1.78 1.78 95 1011.3
20260501185118 60 49 8.0 11.0 0.14 1.77 1.77 95 1011.2
20260501184644 60 46 5.0 12.0 0.11 1.74 1.74 95 1011.6
20260501184116 60 55 8.0 13.0 0.05 1.67 1.67 95 1012.2
20260501183641 60 321 7.0 13.0 0.02 1.63 1.63 95 1013.9
20260501183117 60 337 7.0 11.0 0.07 1.63 1.63 95 1012.8
20260501182643 60 355 4.0 11.0 0.14 1.63 1.63 95 1012.0
20260501182155 60 18 7.0 11.0 0.18 1.63 1.63 95 1012.1
20260501181700 60 37 6.0 11.0 0.24 1.63 1.63 95 1012.6
20260501181212 60 346 6.0 12.0 0.29 1.63 1.63 95 1012.4
20260501180623 60 346 8.0 21.0 0.29 1.63 1.63 95 1012.1
20260501180156 60 28 10.0 21.0 0.29 1.63 1.63 95 1011.9
20260501175623 60 36 4.0 11.0 0.30 1.63 1.63 95 1012.3
20260501175148 60 355 7.0 14.0 0.30 1.63 1.63 95 1012.3
20260501174720 60 355 7.0 14.0 0.30 1.63 1.63 95 1012.5
20260501174124 60 26 7.0 13.0 0.29 1.62 1.62 95 1012.7
20260501173657 60 355 7.0 14.0 0.28 1.61 1.61 95 1012.9
20260501173127 60 314 8.0 14.0 0.22 1.55 1.55 95 1013.7
20260501172658 60 15 8.0 14.0 0.16 1.49 1.49 95 1013.1
20260501172202 60 9 6.0 13.0 0.12 1.45 1.45 95 1014.0
20260501171635 61 17 8.0 11.0 0.05 1.38 1.38 95 1013.4
20260501171201 61 346 4.0 7.0 0.01 1.34 1.34 95 1013.7